NOAA 16 DEB, 41273

Orbit data source: Space-Track

NOAA 16 DEB, 41273 is space debris in SSO originally from a launch on Thu, 21 Sep 2000 UTC launched from the Air Force Western Test Range (AFWTR). Debris objects in space refer to the collection of defunct objects orbiting the Earth. Examples of debris include non-operational satellites, rocket bodies, and fragments generated from explosions, collisions, or faulty payload assembly.

Loading next visibility...
Identifier
41273, 2000-055FZ
Orbit
SSO
Country
Flag of USUS
Related business
Manufacturer
Unknown
Mission
Spacecraft
Bus & Motor
Unknown
Mass
Unknown
Launch date (UTC)
2000-09-21 (26 years ago)
Launch vehicle
Unknown
Launch site
Air Force Western Test Range (AFWTR)
Object type
Payload
Rocket body
Debris
Shape & HBR
Unknown shape, 0.1 m
Radar Cross Section
Medium (>0.1 m² and <1 m²)

Expand to show TLE details & history
Last TLE update: 1 day ago

TLE from 1 day ago
0 NOAA 16 DEB
1 41273U 00055FZ  26236.70951691  .00017519  00000-0  22426-2 0  9995
2 41273  98.9099 147.1359 0031430  67.8471 292.6069 14.81055832560481
Epoch: 2026-08-24T17:01Z
TLE epoch observation values (Epoch: 2026-08-24T17:01:42.261Z)
Latitude
-0°
Longitude
-81.27751°
Altitude
620.579 km
Speed
7.553 km/s
True Right ascension
09h 48m 32s
True Declination
0° 00' 00"
Sunlit
Object was in daylight at epoch
Visualization orbit readout
Latitude
Unknown
Longitude
Unknown
Altitude
Unknown
Speed
Unknown
Apparent Right ascension
Unknown
Apparent Declination
Unknown
Sunlit
N/A
Visualization observer readout
Local Sidereal Time
09:22:46
Azimuth
Unknown
Elevation
Unknown
Doppler factor
Unknown
Orbital elements
Apogee altitude
645.086 km
Perigee altitude
601.076 km
Semi-major axis
7,001.218 km
Eccentricity
0.00314
Inclination
98.9099°
RAAN
147.1359°
Arg. of periapsis
67.8471°
True anomaly
292.27391°
Mean anomaly
292.6069°
Eccentric anomaly
292.44046°
Mean motion
3.70495 °/min
Orbital period
97.17 mins
BSTAR
0.0022426
Loading maneuver chart data...
Computing Atmospheric mass density...

Documentation

Showing up to 5 results
|